Regional Weather Roundup
Issued by NWS

Home | Current Version | Previous Version | Graphics & Text | Print | Product List | Glossary On
Versions: 1 2 3 4 5 6 7 8 9 10 11 12 13 14 15 16 17 18 19 20 21 22 23 24 25 26 27 28 29 30 31 32 33 34 35 36 37 38 39 40 41 42 43 44 45 46 47 48 49 50
000
ASUS43 KLOT 310310
RWRIL

ILLINOIS REGIONAL WEATHER ROUNDUP
NATIONAL WEATHER SERVICE CHICAGO/ROMEOVILLE IL
1000 PM CDT THU OCT 30 2014

NOTE: "FAIR" INDICATES FEW OR NO CLOUDS BELOW 12,000 FEET WITH NO
SIGNIFICANT WEATHER AND/OR OBSTRUCTIONS TO VISIBILITY.

* THESE STATIONS ARE NOT UNDER NWS QUALITY CONTROL. THEY ALSO MAY NOT
  REPORT WEATHER SUCH AS PRECIPITATION OR FOG.

ILZ001-002-007-009-015-016-024-310400-
NORTHWEST ILLINOIS

CITY           SKY/WX    TMP DP  RH WIND       PRES   REMARKS
MOLINE         CLOUDY    46  39  76 CALM      30.10R
STERLING*      CLOUDY    46  37  71 W5        30.09R
SAVANNA*       CLOUDY    48  39  71 CALM      30.10R
$$

ILZ003-004-008-010-011-017-018-310400-
NORTH CENTRAL ILLINOIS

CITY           SKY/WX    TMP DP  RH WIND       PRES   REMARKS
ROCKFORD       CLOUDY    47  36  65 NW7       30.09R
FREEPORT*      CLOUDY    45  37  74 W5        30.10R
ROCHELLE*      CLOUDY    43  38  82 CALM      30.08S
DE KALB*       CLOUDY    44  35  72 W6        30.07S
PERU*          CLOUDY    45  38  77 W3        30.09R
$$

ILZ005-006-012>014-019>023-310400-
NORTHEAST ILLINOIS

CITY           SKY/WX    TMP DP  RH WIND       PRES   REMARKS
CHICAGO-OHARE  CLOUDY    46  36  68 W6        30.05R
CHICAGO-MIDWAY CLOUDY    49  37  63 W6        30.05S
AURORA         MOCLDY    41  35  79 W5        30.07R
LANSING*       CLOUDY    45  37  75 W5        30.06R
JOLIET*        CLOUDY    46  36  70 W3        30.07R
WAUKEGAN       CLOUDY    45  35  68 W5        30.03S
DUPAGE AIRPORT MOCLDY    45  36  70 W3        30.05S
KANKAKEE*      MOCLDY    39  37  91 CALM      30.07S
WHEELING       CLOUDY    48  35  60 W3        30.06S
MORRIS*        CLOUDY    43  39  86 W5        30.06S
ROMEOVILLE*    CLOUDY    45  37  72 W5        30.06S
NORTHERLY ISL    N/A     49  36  61 W5          N/A
$$

LMZ740>746-310400-
SOUTHERN LAKE MICHIGAN

STATION/POSITION SKY/WX   TEMP    WIND        PRES    VSBY  WAVE
                          AIR SEA DIR/SP/G                  HT/PER
                          (F)     (DEG/KT/KT) (MB)    (MI)  (FT/S)
SOUTHERN BUOY              50 53  280/ 12/ 16 1016.8F         1/ 3
WAUKEGAN HARBOR            48     280/  7/  9   N/A
HARRISON CRIB              49     260/ 10/ 12   N/A
BURNHAM HARBOR             49     290/  4/  8   N/A
MICHIGAN CITY              50     230/ 11/ 13   N/A
$$

ILZ025>027-034>036-040-047-049-050-058-095>099-310400-
WEST-CENTRAL ILLINOIS

CITY           SKY/WX    TMP DP  RH WIND       PRES   REMARKS
QUINCY         CLOUDY    46  41  82 NE6       30.07R
GALESBURG*     CLOUDY    43  41  92 N3        30.10R
MACOMB*        CLOUDY    44  41  87 N5        30.10R
JACKSONVILLE*  PTCLDY    48  44  86 CALM      30.07R
PITTSFIELD*    MOCLDY    46  42  85 N3        30.07R
$$

ILZ028>032-037-038-041>044-048-051>054-059>061-310400-
CENTRAL ILLINOIS

CITY           SKY/WX    TMP DP  RH WIND       PRES   REMARKS
PONTIAC        MOCLDY    42  40  90 CALM      30.09R
BLOOMINGTON    PTCLDY    42  42 100 CALM      30.09R
DECATUR        CLOUDY    46  44  93 S6        30.06F
PEORIA         CLOUDY    46  43  89 CALM      30.08S
LACON*         CLOUDY    43  40  91 CALM      30.08S
LINCOLN*       CLOUDY    47  44  89 N5        30.07R
SPRINGFIELD    CLOUDY    48  43  82 SE6       30.07R
TAYLORVILLE    CLOUDY    46  41  81 E9        30.06S
$$

ILZ033-039-045-046-055>057-062-063-310400-
EAST-CENTRAL ILLINOIS

CITY           SKY/WX    TMP DP  RH WIND       PRES   REMARKS
CHAMPAIGN      CLOUDY    46  43  89 CALM      30.07R
DANVILLE*      CLOUDY    45  41  86 W3        30.04S
RANTOUL*       MOCLDY    45  43  91 NW5       30.07S
MATTOON        CLOUDY    46  43  89 N5        30.07S
PARIS*         CLOUDY    47  44  87 W3        30.08S
$$

ILZ079-100>102-310400-
SOUTHWEST ILLINOIS

CITY           SKY/WX    TMP DP  RH WIND       PRES   REMARKS
BELLEVILLE     CLOUDY    51  50  97 S3        30.03S
CAHOKIA*       PTCLDY    50  47  89 SW3       30.04R
SPARTA*        CLOUDY    50  48  93 CALM      30.04S
$$

ILZ064>066-069>071-074>076-080>082-084>086-088>090-092>094-310400-
SOUTH-CENTRAL ILLINOIS

CITY           SKY/WX    TMP DP  RH WIND       PRES   REMARKS
CARBONDALE     CLOUDY    52  47  83 CALM      30.04R
CAIRO*         RAIN      54  49  83 CALM      30.05R
EFFINGHAM*     LGT RAIN  47  44  87 NE6       30.07R
MARION         CLOUDY    54  46  76 CALM      30.04S
MT. VERNON     CLOUDY    50  43  76 CALM      30.05S
CENTRALIA*     CLOUDY    49  46  89 CALM      30.04S
SALEM*         LGT RAIN  51  48  90 CALM      30.05S
METROPOLIS*    CLOUDY    51  51 100 CALM      30.03S
$$

ILZ067-068-072-073-078-083-087-091-310400-
SOUTHEAST ILLINOIS

CITY           SKY/WX    TMP DP  RH WIND       PRES   REMARKS
LAWRENCEVILLE  LGT RAIN  50  30  46 NE8       30.06S
FLORA*         LGT RAIN  49  45  85 N3        30.06R
FAIRFIELD*     RAIN      50  47  87 CALM      30.04S
HARRISBURG*    CLOUDY    51  49  92 E3        30.05F
ROBINSON*      LGT RAIN  50  46  88 N5        30.08R
CARMI*         LGT RAIN  53  47  80 CALM      30.05R
$$

ABBREVIATIONS USED IN REMARKS
   TC - TEMPERATURE IN CELSIUS
  WCI - WIND CHILL INDEX
   HX - HEAT INDEX
  VSB - VISIBILITY
$$




USA.gov is the U.S. government's official web portal to all federal, state and local government web resources and services.